QPF
0.02 0.04 0.02 0.02 0.01 0.01 0.01 0.00 0.00 0.00 0.00 0.00 0.01 0.01 0.01 0.01 0.02 0.02 0.02 0.01 0.02 0.02 0.03 0.04 0.03 0.02 0.02 0.01 0.02 0.03 0.03 0.04 0.04 0.04 0.03 0.03 0.03 0.03 0.03 0.04 0.05 0.03 0.04
0.03 0.03 0.01 0.01 0.02 0.02 0.01 0.01 0.00 0.00 0.00 0.00 0.01 0.01 0.02 0.02 0.02 0.02 0.02 0.03 0.02 0.02 0.03 0.04 0.04 0.02 0.01 0.01 0.03 0.03 0.03 0.03 0.05 0.06 0.04 0.03 0.04 0.04 0.03 0.03 0.05 0.03 0.04
0.01 0.00 0.01 0.01 0.01 0.02 0.01 0.01 0.00 0.01 0.00 0.00 0.00 0.01 0.01 0.02 0.02 0.02 0.03 0.03 0.03 0.02 0.02 0.04 0.04 0.03 0.01 0.01 0.02 0.03 0.03 0.03 0.03 0.04 0.04 0.02 0.02 0.04 0.04 0.04 0.04 0.04 0.05
0.00 0.00 0.00 0.00 0.01 0.01 0.01 0.01 0.00 0.00 0.01 0.01 0.00 0.01 0.01 0.02 0.03 0.03 0.03 0.03 0.03 0.03 0.02 0.03 0.04 0.04 0.03 0.02 0.02 0.03 0.04 0.05 0.04 0.02 0.02 0.01 0.01 0.04 0.05 0.04 0.05 0.05 0.05
0.00 0.00 0.00 0.00 0.00 0.00 0.00 0.00 0.00 0.01 0.01 0.01 0.01 0.00 0.01 0.02 0.03 0.05 0.05 0.05 0.04 0.03 0.03 0.04 0.04 0.05 0.04 0.03 0.03 0.04 0.04 0.06 0.06 0.03 0.01 0.01 0.01 0.03 0.05 0.05 0.04 0.05 0.06
0.00 0.00 0.00 0.00 0.00 0.00 0.00 0.00 0.00 0.00 0.01 0.01 0.01 0.01 0.02 0.02 0.02 0.04 0.09 0.10 0.08 0.05 0.03 0.03 0.05 0.05 0.04 0.03 0.04 0.06 0.05 0.05 0.06 0.03 0.02 0.01 0.01 0.03 0.05 0.05 0.05 0.05 0.05
0.02 0.00 0.00 0.00 0.00 0.00 0.00 0.00 0.00 0.00 0.01 0.01 0.02 0.03 0.03 0.04 0.04 0.04 0.06 0.11 0.12 0.10 0.07 0.05 0.04 0.05 0.06 0.05 0.04 0.05 0.05 0.06 0.06 0.03 0.02 0.02 0.01 0.03 0.07 0.06 0.05 0.05 0.06
0.07 0.03 0.01 0.01 0.01 0.01 0.01 0.00 0.01 0.01 0.01 0.01 0.01 0.02 0.03 0.03 0.04 0.05 0.05 0.07 0.11 0.12 0.10 0.09 0.07 0.06 0.06 0.05 0.04 0.03 0.04 0.05 0.04 0.02 0.03 0.02 0.01 0.03 0.06 0.06 0.05 0.05 0.06
0.08 0.06 0.04 0.02 0.02 0.02 0.02 0.02 0.02 0.01 0.01 0.01 0.01 0.01 0.02 0.03 0.04 0.05 0.06 0.07 0.08 0.12 0.12 0.09 0.07 0.07 0.06 0.04 0.03 0.03 0.03 0.04 0.02 0.02 0.02 0.02 0.02 0.03 0.05 0.05 0.05 0.05 0.05
0.10 0.09 0.09 0.05 0.03 0.02 0.03 0.03 0.02 0.02 0.02 0.01 0.01 0.01 0.01 0.02 0.03 0.04 0.05 0.07 0.09 0.11 0.13 0.10 0.07 0.08 0.07 0.05 0.04 0.03 0.04 0.04 0.02 0.01 0.01 0.02 0.02 0.04 0.06 0.06 0.05 0.05 0.05
0.08 0.11 0.11 0.09 0.05 0.04 0.05 0.03 0.02 0.02 0.02 0.02 0.02 0.01 0.01 0.01 0.01 0.02 0.06 0.11 0.13 0.14 0.13 0.13 0.09 0.08 0.08 0.06 0.04 0.04 0.03 0.02 0.01 0.01 0.01 0.01 0.03 0.04 0.06 0.06 0.06 0.05 0.05
0.05 0.09 0.07 0.04 0.05 0.06 0.05 0.04 0.03 0.02 0.02 0.01 0.02 0.02 0.02 0.02 0.02 0.02 0.04 0.11 0.16 0.17 0.15 0.15 0.15 0.12 0.10 0.07 0.05 0.06 0.03 0.01 0.01 0.01 0.01 0.02 0.03 0.03 0.05 0.05 0.05 0.05 0.05
0.06 0.05 0.04 0.03 0.03 0.04 0.04 0.04 0.04 0.03 0.02 0.02 0.04 0.08 0.07 0.06 0.05 0.05 0.05 0.06 0.09 0.14 0.14 0.14 0.16 0.14 0.10 0.06 0.04 0.04 0.03 0.02 0.01 0.01 0.01 0.02 0.03 0.03 0.04 0.05 0.04 0.05 0.05
0.06 0.05 0.04 0.03 0.03 0.03 0.04 0.04 0.03 0.03 0.04 0.05 0.06 0.07 0.07 0.07 0.07 0.07 0.06 0.06 0.05 0.06 0.07 0.08 0.10 0.13 0.11 0.06 0.04 0.03 0.02 0.02 0.01 0.01 0.01 0.03 0.03 0.03 0.04 0.05 0.05 0.05 0.05
0.06 0.05 0.04 0.03 0.02 0.02 0.03 0.03 0.03 0.04 0.05 0.05 0.06 0.07 0.08 0.07 0.08 0.07 0.05 0.06 0.06 0.06 0.07 0.06 0.06 0.08 0.09 0.07 0.05 0.03 0.02 0.02 0.02 0.02 0.02 0.03 0.03 0.04 0.04 0.04 0.04 0.04 0.05
0.07 0.06 0.06 0.04 0.03 0.04 0.05 0.05 0.04 0.05 0.05 0.05 0.05 0.06 0.06 0.06 0.07 0.06 0.06 0.06 0.06 0.06 0.08 0.09 0.09 0.10 0.09 0.07 0.06 0.05 0.05 0.04 0.04 0.03 0.03 0.03 0.04 0.04 0.04 0.04 0.04 0.04 0.05
0.06 0.07 0.07 0.06 0.07 0.08 0.10 0.10 0.08 0.07 0.07 0.07 0.06 0.06 0.07 0.06 0.06 0.08 0.08 0.08 0.07 0.06 0.07 0.08 0.09 0.08 0.08 0.06 0.05 0.06 0.06 0.04 0.03 0.03 0.02 0.02 0.02 0.03 0.03 0.03 0.04 0.04 0.04
0.08 0.09 0.09 0.09 0.11 0.13 0.13 0.15 0.12 0.11 0.10 0.09 0.08 0.06 0.06 0.06 0.07 0.08 0.10 0.11 0.10 0.09 0.08 0.06 0.05 0.05 0.05 0.06 0.06 0.05 0.05 0.05 0.04 0.03 0.02 0.02 0.02 0.02 0.02 0.03 0.03 0.03 0.03
0.07 0.07 0.08 0.07 0.10 0.13 0.10 0.10 0.11 0.12 0.11 0.09 0.07 0.06 0.06 0.07 0.08 0.09 0.12 0.15 0.15 0.15 0.12 0.07 0.05 0.05 0.05 0.06 0.07 0.09 0.09 0.08 0.06 0.04 0.03 0.02 0.02 0.02 0.01 0.02 0.03 0.02 0.02
0.07 0.05 0.05 0.06 0.09 0.09 0.06 0.06 0.07 0.08 0.08 0.07 0.07 0.07 0.08 0.09 0.09 0.13 0.14 0.14 0.15 0.14 0.09 0.05 0.04 0.03 0.04 0.06 0.06 0.07 0.07 0.07 0.06 0.05 0.03 0.03 0.02 0.01 0.01 0.02 0.02 0.01 0.02
0.06 0.06 0.05 0.06 0.09 0.08 0.08 0.08 0.08 0.07 0.07 0.08 0.08 0.08 0.09 0.09 0.09 0.12 0.13 0.13 0.13 0.09 0.04 0.03 0.02 0.03 0.03 0.04 0.06 0.05 0.05 0.06 0.05 0.05 0.06 0.06 0.04 0.03 0.02 0.01 0.02 0.01 0.01
0.06 0.06 0.06 0.07 0.09 0.09 0.10 0.13 0.14 0.13 0.09 0.08 0.07 0.08 0.10 0.08 0.09 0.09 0.09 0.08 0.07 0.05 0.03 0.02 0.03 0.03 0.04 0.04 0.05 0.06 0.05 0.06 0.05 0.04 0.05 0.06 0.05 0.04 0.03 0.03 0.02 0.02 0.02
0.07 0.07 0.09 0.12 0.12 0.13 0.15 0.15 0.11 0.09 0.08 0.07 0.08 0.08 0.08 0.07 0.08 0.09 0.08 0.06 0.05 0.05 0.04 0.04 0.05 0.05 0.04 0.04 0.05 0.07 0.06 0.05 0.05 0.04 0.04 0.04 0.04 0.04 0.03 0.03 0.03 0.03 0.03
0.10 0.11 0.13 0.15 0.17 0.18 0.16 0.13 0.10 0.08 0.08 0.08 0.09 0.09 0.08 0.07 0.06 0.06 0.05 0.05 0.06 0.06 0.06 0.07 0.07 0.05 0.05 0.04 0.04 0.04 0.06 0.05 0.06 0.06 0.05 0.04 0.03 0.03 0.03 0.03 0.03 0.02 0.03
0.14 0.18 0.18 0.19 0.24 0.20 0.15 0.11 0.10 0.09 0.12 0.12 0.10 0.09 0.07 0.06 0.05 0.04 0.04 0.03 0.04 0.06 0.06 0.06 0.07 0.06 0.05 0.05 0.04 0.04 0.04 0.05 0.04 0.04 0.04 0.04 0.04 0.03 0.03 0.03 0.03 0.03 0.02
0.13 0.20 0.20 0.18 0.19 0.16 0.13 0.10 0.10 0.10 0.12 0.11 0.09 0.09 0.08 0.05 0.04 0.03 0.03 0.03 0.03 0.04 0.05 0.06 0.08 0.07 0.05 0.05 0.05 0.05 0.05 0.05 0.04 0.04 0.03 0.03 0.04 0.05 0.04 0.03 0.03 0.04 0.03
MSLP
1011.56 1011.27 1011.15 1011.23 1011.45 1011.75 1012.05 1012.29 1012.45 1012.53 1012.58 1012.66 1012.83 1013.14 1013.57 1014.10 1014.68 1015.22 1015.68 1016.02 1016.24 1016.36 1016.42 1016.45 1016.50 1016.58 1016.69 1016.81 1016.93 1017.01 1017.06 1017.06 1017.03 1016.98 1016.91 1016.84 1016.78 1016.72 1016.65 1016.59 1016.53 1016.49 1016.46
1011.43 1011.22 1011.18 1011.33 1011.61 1011.96 1012.30 1012.57 1012.74 1012.83 1012.88 1012.97 1013.15 1013.45 1013.88 1014.39 1014.94 1015.46 1015.88 1016.19 1016.38 1016.48 1016.53 1016.56 1016.62 1016.70 1016.82 1016.94 1017.05 1017.11 1017.13 1017.11 1017.05 1016.97 1016.88 1016.80 1016.72 1016.66 1016.59 1016.54 1016.48 1016.45 1016.44
1011.21 1011.09 1011.14 1011.37 1011.73 1012.14 1012.53 1012.84 1013.04 1013.16 1013.23 1013.32 1013.49 1013.77 1014.17 1014.64 1015.14 1015.60 1015.97 1016.23 1016.39 1016.48 1016.53 1016.58 1016.65 1016.76 1016.88 1017.01 1017.10 1017.15 1017.14 1017.09 1017.00 1016.90 1016.80 1016.72 1016.65 1016.59 1016.54 1016.50 1016.46 1016.45 1016.46
1010.96 1010.93 1011.07 1011.39 1011.82 1012.30 1012.74 1013.10 1013.34 1013.48 1013.57 1013.67 1013.83 1014.09 1014.44 1014.85 1015.28 1015.67 1015.98 1016.20 1016.34 1016.42 1016.48 1016.55 1016.66 1016.79 1016.93 1017.05 1017.13 1017.16 1017.12 1017.03 1016.92 1016.81 1016.70 1016.63 1016.57 1016.53 1016.49 1016.47 1016.46 1016.46 1016.49
1010.75 1010.80 1011.01 1011.39 1011.88 1012.42 1012.91 1013.31 1013.59 1013.76 1013.87 1013.98 1014.14 1014.38 1014.69 1015.05 1015.42 1015.75 1016.00 1016.18 1016.29 1016.37 1016.45 1016.56 1016.69 1016.85 1017.00 1017.12 1017.18 1017.17 1017.10 1016.98 1016.85 1016.72 1016.62 1016.55 1016.51 1016.48 1016.47 1016.45 1016.45 1016.46 1016.50
1010.66 1010.74 1010.99 1011.41 1011.94 1012.50 1013.02 1013.44 1013.75 1013.96 1014.10 1014.24 1014.41 1014.65 1014.95 1015.27 1015.59 1015.87 1016.08 1016.22 1016.32 1016.41 1016.50 1016.63 1016.79 1016.96 1017.12 1017.22 1017.26 1017.22 1017.11 1016.97 1016.81 1016.68 1016.58 1016.51 1016.48 1016.46 1016.45 1016.44 1016.43 1016.42 1016.44
1010.72 1010.79 1011.04 1011.46 1011.99 1012.55 1013.07 1013.50 1013.83 1014.06 1014.24 1014.42 1014.63 1014.90 1015.20 1015.52 1015.82 1016.06 1016.24 1016.36 1016.45 1016.53 1016.64 1016.78 1016.95 1017.12 1017.27 1017.35 1017.36 1017.29 1017.15 1016.99 1016.82 1016.68 1016.59 1016.53 1016.51 1016.49 1016.47 1016.43 1016.39 1016.35 1016.33
1010.93 1010.96 1011.18 1011.56 1012.05 1012.58 1013.07 1013.49 1013.82 1014.08 1014.31 1014.54 1014.81 1015.12 1015.46 1015.80 1016.09 1016.32 1016.48 1016.58 1016.64 1016.71 1016.81 1016.95 1017.12 1017.28 1017.42 1017.48 1017.46 1017.37 1017.22 1017.04 1016.87 1016.75 1016.66 1016.62 1016.59 1016.57 1016.52 1016.44 1016.35 1016.25 1016.16
1011.26 1011.24 1011.40 1011.72 1012.15 1012.61 1013.05 1013.44 1013.76 1014.04 1014.32 1014.61 1014.95 1015.32 1015.71 1016.07 1016.38 1016.60 1016.74 1016.81 1016.85 1016.90 1016.98 1017.10 1017.25 1017.40 1017.52 1017.57 1017.54 1017.44 1017.29 1017.13 1016.97 1016.86 1016.80 1016.77 1016.74 1016.70 1016.63 1016.50 1016.34 1016.17 1016.01
1011.66 1011.58 1011.68 1011.94 1012.29 1012.68 1013.06 1013.40 1013.71 1014.00 1014.31 1014.66 1015.06 1015.49 1015.93 1016.32 1016.63 1016.85 1016.96 1017.00 1017.01 1017.02 1017.07 1017.16 1017.30 1017.44 1017.55 1017.61 1017.59 1017.51 1017.38 1017.24 1017.11 1017.03 1016.99 1016.97 1016.95 1016.90 1016.80 1016.63 1016.41 1016.16 1015.93
1012.08 1011.96 1012.01 1012.21 1012.49 1012.81 1013.12 1013.41 1013.69 1013.98 1014.32 1014.71 1015.15 1015.63 1016.10 1016.51 1016.82 1017.01 1017.10 1017.10 1017.07 1017.04 1017.06 1017.14 1017.26 1017.41 1017.53 1017.61 1017.62 1017.57 1017.48 1017.38 1017.30 1017.25 1017.23 1017.23 1017.22 1017.16 1017.03 1016.83 1016.56 1016.26 1015.96
1012.46 1012.34 1012.37 1012.52 1012.74 1012.99 1013.24 1013.49 1013.74 1014.02 1014.36 1014.77 1015.23 1015.73 1016.20 1016.61 1016.91 1017.08 1017.13 1017.10 1017.04 1016.99 1016.99 1017.06 1017.19 1017.35 1017.51 1017.62 1017.68 1017.68 1017.63 1017.57 1017.52 1017.50 1017.50 1017.51 1017.51 1017.44 1017.31 1017.09 1016.80 1016.46 1016.12
1012.80 1012.69 1012.72 1012.84 1013.02 1013.22 1013.42 1013.62 1013.84 1014.10 1014.43 1014.84 1015.30 1015.79 1016.25 1016.63 1016.90 1017.05 1017.08 1017.03 1016.95 1016.90 1016.91 1016.99 1017.15 1017.34 1017.53 1017.70 1017.80 1017.85 1017.85 1017.82 1017.79 1017.78 1017.79 1017.80 1017.79 1017.73 1017.59 1017.38 1017.09 1016.75 1016.39
1013.07 1013.00 1013.03 1013.14 1013.29 1013.45 1013.62 1013.79 1013.98 1014.22 1014.53 1014.92 1015.35 1015.81 1016.24 1016.59 1016.83 1016.96 1016.98 1016.93 1016.87 1016.84 1016.87 1016.99 1017.19 1017.42 1017.67 1017.88 1018.03 1018.11 1018.14 1018.13 1018.10 1018.08 1018.07 1018.06 1018.03 1017.96 1017.84 1017.64 1017.37 1017.05 1016.72
1013.30 1013.25 1013.28 1013.38 1013.50 1013.64 1013.79 1013.94 1014.12 1014.35 1014.64 1014.99 1015.39 1015.80 1016.19 1016.50 1016.73 1016.85 1016.88 1016.86 1016.84 1016.86 1016.94 1017.11 1017.35 1017.64 1017.92 1018.17 1018.35 1018.46 1018.50 1018.48 1018.43 1018.38 1018.32 1018.27 1018.21 1018.12 1018.00 1017.83 1017.60 1017.33 1017.03
1013.47 1013.42 1013.44 1013.51 1013.62 1013.74 1013.89 1014.05 1014.23 1014.46 1014.73 1015.06 1015.41 1015.78 1016.12 1016.41 1016.62 1016.75 1016.82 1016.86 1016.90 1016.98 1017.13 1017.36 1017.64 1017.96 1018.28 1018.55 1018.75 1018.86 1018.89 1018.85 1018.76 1018.65 1018.53 1018.42 1018.31 1018.20 1018.07 1017.91 1017.72 1017.50 1017.27
1013.60 1013.51 1013.48 1013.52 1013.60 1013.74 1013.90 1014.09 1014.30 1014.54 1014.82 1015.12 1015.44 1015.76 1016.06 1016.33 1016.54 1016.70 1016.83 1016.93 1017.05 1017.21 1017.42 1017.69 1018.01 1018.35 1018.68 1018.95 1019.15 1019.26 1019.27 1019.20 1019.07 1018.90 1018.71 1018.53 1018.36 1018.20 1018.05 1017.90 1017.74 1017.56 1017.38
1013.65 1013.49 1013.40 1013.40 1013.48 1013.62 1013.83 1014.07 1014.34 1014.62 1014.91 1015.21 1015.49 1015.78 1016.04 1016.29 1016.51 1016.71 1016.89 1017.07 1017.27 1017.49 1017.75 1018.06 1018.39 1018.73 1019.05 1019.31 1019.50 1019.60 1019.60 1019.51 1019.34 1019.12 1018.88 1018.63 1018.39 1018.17 1017.98 1017.82 1017.67 1017.52 1017.37
1013.64 1013.38 1013.22 1013.18 1013.26 1013.45 1013.72 1014.05 1014.39 1014.73 1015.05 1015.34 1015.61 1015.85 1016.09 1016.32 1016.55 1016.78 1017.01 1017.26 1017.52 1017.79 1018.09 1018.40 1018.72 1019.04 1019.34 1019.59 1019.77 1019.87 1019.87 1019.78 1019.60 1019.36 1019.07 1018.76 1018.45 1018.18 1017.93 1017.73 1017.56 1017.41 1017.28
1013.56 1013.20 1012.97 1012.90 1013.01 1013.26 1013.63 1014.05 1014.49 1014.90 1015.26 1015.56 1015.80 1016.02 1016.22 1016.43 1016.66 1016.91 1017.19 1017.49 1017.79 1018.09 1018.39 1018.69 1018.98 1019.26 1019.53 1019.76 1019.94 1020.05 1020.08 1020.02 1019.86 1019.62 1019.31 1018.96 1018.60 1018.25 1017.94 1017.68 1017.46 1017.29 1017.15
1013.42 1012.98 1012.70 1012.64 1012.79 1013.13 1013.60 1014.14 1014.69 1015.17 1015.57 1015.88 1016.11 1016.29 1016.45 1016.64 1016.87 1017.13 1017.43 1017.75 1018.07 1018.38 1018.67 1018.93 1019.18 1019.41 1019.64 1019.85 1020.04 1020.18 1020.26 1020.25 1020.13 1019.92 1019.61 1019.24 1018.83 1018.42 1018.04 1017.71 1017.43 1017.20 1017.02
1013.26 1012.77 1012.48 1012.45 1012.67 1013.11 1013.69 1014.35 1014.99 1015.54 1015.98 1016.29 1016.50 1016.66 1016.79 1016.95 1017.17 1017.43 1017.74 1018.07 1018.39 1018.68 1018.93 1019.15 1019.34 1019.52 1019.71 1019.91 1020.11 1020.29 1020.42 1020.48 1020.42 1020.25 1019.97 1019.59 1019.14 1018.68 1018.22 1017.81 1017.46 1017.17 1016.94
1013.14 1012.65 1012.38 1012.40 1012.70 1013.23 1013.92 1014.66 1015.38 1016.00 1016.46 1016.78 1016.98 1017.10 1017.21 1017.35 1017.55 1017.81 1018.12 1018.44 1018.75 1019.01 1019.22 1019.38 1019.51 1019.64 1019.80 1019.98 1020.19 1020.40 1020.59 1020.71 1020.72 1020.59 1020.33 1019.96 1019.49 1018.97 1018.46 1017.97 1017.54 1017.19 1016.89
1013.13 1012.67 1012.45 1012.53 1012.89 1013.50 1014.25 1015.07 1015.83 1016.48 1016.96 1017.28 1017.47 1017.58 1017.67 1017.80 1017.99 1018.25 1018.55 1018.86 1019.14 1019.37 1019.53 1019.64 1019.72 1019.80 1019.92 1020.08 1020.29 1020.53 1020.75 1020.92 1020.97 1020.89 1020.65 1020.28 1019.79 1019.24 1018.67 1018.13 1017.64 1017.23 1016.87
1013.28 1012.87 1012.70 1012.83 1013.24 1013.89 1014.67 1015.50 1016.28 1016.94 1017.42 1017.74 1017.92 1018.03 1018.13 1018.26 1018.45 1018.70 1019.00 1019.29 1019.55 1019.75 1019.87 1019.93 1019.96 1019.99 1020.07 1020.21 1020.41 1020.65 1020.88 1021.07 1021.15 1021.08 1020.86 1020.48 1019.99 1019.42 1018.82 1018.24 1017.71 1017.26 1016.86
1013.62 1013.27 1013.15 1013.31 1013.73 1014.36 1015.13 1015.93 1016.69 1017.32 1017.79 1018.10 1018.29 1018.42 1018.53 1018.68 1018.88 1019.13 1019.42 1019.70 1019.93 1020.09 1020.17 1020.19 1020.18 1020.18 1020.22 1020.33 1020.50 1020.72 1020.95 1021.12 1021.20 1021.13 1020.91 1020.53 1020.04 1019.47 1018.87 1018.28 1017.74 1017.26 1016.84
Thickness
5794 5795 5792 5789 5786 5784 5781 5779 5778 5777 5775 5774 5772 5770 5768 5766 5764 5761 5759 5757 5755 5754 5752 5751 5750 5749 5747 5747 5745 5744 5743 5742 5741 5740 5740 5739 5738 5737 5737 5736 5736 5735 5734
5798 5795 5791 5787 5783 5781 5779 5776 5774 5773 5772 5770 5769 5767 5765 5762 5760 5758 5756 5754 5752 5751 5749 5748 5747 5746 5745 5744 5743 5741 5740 5739 5738 5737 5737 5736 5736 5735 5734 5734 5733 5732 5732
5796 5793 5788 5785 5781 5778 5775 5773 5771 5770 5768 5766 5764 5762 5761 5759 5757 5755 5753 5751 5750 5748 5746 5745 5744 5743 5742 5741 5740 5739 5738 5737 5736 5736 5735 5734 5733 5733 5732 5732 5731 5730 5729
5793 5789 5786 5782 5778 5775 5773 5770 5768 5766 5764 5763 5761 5759 5757 5755 5753 5752 5750 5748 5746 5745 5744 5743 5742 5741 5740 5739 5738 5737 5736 5735 5734 5733 5732 5731 5731 5730 5730 5730 5729 5728 5727
5789 5786 5782 5779 5776 5773 5770 5768 5765 5763 5761 5759 5757 5755 5754 5752 5750 5749 5747 5745 5743 5742 5741 5740 5739 5737 5736 5736 5735 5734 5733 5732 5732 5731 5730 5729 5729 5728 5728 5728 5727 5726 5725
5783 5781 5778 5775 5772 5769 5767 5765 5762 5760 5758 5756 5754 5752 5750 5749 5748 5746 5744 5743 5741 5740 5739 5737 5735 5735 5734 5733 5732 5731 5731 5730 5729 5728 5728 5727 5727 5727 5727 5726 5725 5724 5723
5778 5776 5773 5771 5768 5765 5763 5761 5759 5757 5754 5752 5751 5749 5748 5746 5745 5743 5742 5740 5738 5737 5736 5735 5733 5732 5731 5730 5729 5729 5728 5727 5726 5726 5725 5725 5725 5724 5724 5724 5724 5723 5721
5773 5771 5768 5766 5763 5761 5760 5758 5756 5754 5752 5750 5748 5746 5745 5743 5742 5740 5738 5737 5736 5734 5733 5732 5731 5729 5728 5727 5726 5726 5725 5724 5723 5723 5722 5722 5722 5722 5722 5722 5721 5720 5719
5768 5765 5763 5761 5759 5757 5755 5753 5752 5750 5748 5746 5744 5743 5741 5740 5738 5738 5736 5735 5733 5732 5731 5730 5729 5727 5725 5724 5724 5723 5722 5721 5720 5720 5719 5719 5719 5719 5719 5719 5718 5717 5716
5761 5759 5758 5755 5754 5752 5750 5748 5747 5745 5744 5742 5741 5739 5738 5737 5735 5734 5733 5732 5731 5730 5729 5728 5726 5724 5723 5722 5721 5720 5720 5719 5718 5717 5716 5716 5716 5717 5716 5716 5715 5714 5714
5753 5752 5751 5750 5748 5747 5745 5744 5743 5741 5740 5738 5737 5735 5734 5733 5731 5730 5729 5729 5729 5727 5726 5725 5724 5722 5721 5719 5719 5718 5717 5716 5715 5714 5714 5714 5713 5713 5713 5713 5712 5712 5711
5745 5745 5746 5745 5744 5743 5741 5739 5738 5737 5736 5735 5733 5731 5730 5728 5727 5726 5725 5725 5725 5725 5723 5721 5721 5719 5718 5716 5715 5714 5713 5713 5712 5711 5711 5711 5711 5711 5710 5710 5710 5709 5708
5742 5742 5742 5741 5740 5738 5737 5735 5734 5733 5733 5731 5729 5727 5725 5724 5722 5721 5721 5721 5721 5720 5719 5718 5717 5716 5715 5713 5712 5711 5710 5709 5708 5708 5709 5708 5709 5708 5708 5708 5707 5706 5705
5739 5738 5738 5737 5735 5734 5733 5732 5730 5729 5728 5727 5725 5723 5722 5720 5719 5718 5717 5717 5716 5715 5715 5714 5713 5712 5711 5710 5709 5708 5707 5706 5705 5705 5705 5705 5706 5706 5705 5705 5705 5704 5703
5733 5734 5734 5733 5732 5730 5729 5728 5727 5726 5724 5723 5721 5719 5718 5717 5715 5714 5713 5712 5711 5710 5710 5709 5709 5708 5707 5706 5705 5704 5704 5703 5703 5702 5702 5702 5702 5703 5703 5702 5701 5701 5700
5730 5730 5730 5729 5728 5727 5725 5723 5722 5721 5720 5719 5718 5716 5715 5713 5711 5709 5708 5708 5707 5706 5706 5705 5704 5703 5703 5702 5702 5701 5700 5700 5700 5699 5699 5699 5699 5699 5699 5699 5698 5697 5697
5726 5726 5724 5724 5723 5722 5720 5719 5718 5716 5716 5714 5713 5712 5710 5709 5707 5705 5703 5703 5703 5702 5701 5700 5699 5698 5698 5698 5697 5697 5696 5696 5696 5696 5696 5695 5696 5696 5695 5695 5695 5694 5693
5723 5722 5720 5720 5718 5716 5715 5714 5713 5711 5710 5709 5707 5706 5705 5704 5703 5700 5699 5698 5698 5697 5696 5695 5694 5693 5693 5692 5692 5692 5692 5692 5692 5692 5692 5692 5692 5692 5692 5692 5691 5691 5690
5721 5719 5717 5715 5714 5712 5711 5710 5707 5705 5704 5703 5702 5701 5700 5699 5698 5696 5695 5694 5693 5692 5691 5691 5689 5689 5688 5688 5687 5687 5688 5688 5688 5688 5688 5688 5688 5688 5687 5687 5687 5687 5686
5718 5716 5713 5712 5710 5708 5706 5703 5701 5698 5698 5697 5697 5696 5695 5694 5693 5691 5690 5689 5687 5686 5685 5685 5684 5683 5683 5683 5683 5683 5683 5684 5684 5684 5684 5684 5683 5683 5683 5683 5682 5683 5682
5714 5711 5709 5707 5705 5702 5699 5696 5693 5692 5692 5692 5691 5691 5690 5689 5688 5686 5686 5684 5682 5681 5680 5680 5678 5677 5677 5677 5676 5676 5678 5679 5679 5680 5680 5679 5679 5678 5678 5678 5678 5678 5678
5709 5707 5705 5703 5702 5698 5695 5693 5690 5689 5687 5687 5686 5686 5686 5685 5683 5682 5681 5680 5678 5676 5674 5674 5673 5672 5671 5671 5670 5668 5667 5669 5672 5675 5675 5674 5674 5673 5673 5673 5672 5672 5673
5704 5702 5701 5699 5697 5694 5691 5688 5686 5683 5682 5681 5681 5681 5682 5680 5678 5677 5676 5675 5674 5672 5670 5669 5669 5667 5665 5664 5665 5663 5661 5661 5663 5667 5668 5668 5668 5668 5667 5668 5668 5667 5667
5699 5698 5696 5694 5691 5689 5686 5683 5681 5679 5677 5677 5676 5676 5676 5674 5673 5672 5671 5670 5669 5667 5666 5666 5665 5663 5661 5660 5659 5659 5660 5659 5656 5658 5660 5662 5662 5662 5662 5662 5663 5662 5662
5696 5694 5691 5689 5687 5685 5683 5681 5679 5675 5673 5672 5672 5671 5670 5669 5668 5668 5667 5666 5664 5663 5662 5661 5660 5659 5657 5657 5655 5654 5653 5652 5652 5651 5652 5653 5654 5656 5656 5657 5657 5656 5657
5692 5690 5688 5685 5683 5681 5680 5678 5676 5672 5669 5668 5667 5666 5665 5664 5664 5663 5663 5662 5660 5659 5657 5656 5655 5654 5653 5653 5652 5650 5649 5648 5647 5646 5645 5646 5646 5648 5650 5651 5651 5651 5650